Time,TemperatureF,DewpointF,PressureIn,WindDirection,WindDirectionDegrees,WindSpeedMPH,WindSpeedGustMPH,Humidity,HourlyPrecipIn,Conditions,Clouds,dailyrainin,SoftwareType,DateUTC
2013-09-13 00:01:00,59.0,58.7,29.89,NNE,22,0.0,-999.0,99,-99.99,,,0.00,Acu-Link.com,2013-09-13 04:01:00,
2013-09-13 00:16:00,59.0,58.7,29.89,ENE,67,0.0,-999.0,99,-99.99,,,0.00,Acu-Link.com,2013-09-13 04:16:00,
2013-09-13 00:31:00,59.0,58.7,29.89,WNW,292,0.0,-999.0,99,-99.99,,,0.00,Acu-Link.com,2013-09-13 04:31:00,
2013-09-13 00:47:00,59.0,58.7,29.89,SSE,157,0.0,-999.0,99,-99.99,,,0.00,Acu-Link.com,2013-09-13 04:47:00,
2013-09-13 01:02:00,59.0,58.7,29.88,NW,315,0.0,-999.0,99,-99.99,,,0.00,Acu-Link.com,2013-09-13 05:02:00,
2013-09-13 01:17:00,59.0,58.7,29.88,NW,315,0.0,-999.0,99,-99.99,,,0.00,Acu-Link.com,2013-09-13 05:17:00,
2013-09-13 01:32:00,59.0,58.7,29.88,NE,45,0.0,-999.0,99,-99.99,,,0.01,Acu-Link.com,2013-09-13 05:32:00,
2013-09-13 01:47:00,59.0,58.7,29.88,NNE,22,0.0,-999.0,99,-99.99,,,0.02,Acu-Link.com,2013-09-13 05:47:00,
2013-09-13 02:02:00,59.0,58.7,29.88,NW,315,0.0,-999.0,99,-99.99,,,0.02,Acu-Link.com,2013-09-13 06:02:00,
2013-09-13 02:17:00,59.0,58.7,29.89,WNW,292,3.1,-999.0,99,-99.99,,,0.02,Acu-Link.com,2013-09-13 06:17:00,
2013-09-13 02:33:00,59.0,58.7,29.88,NNW,337,1.1,-999.0,99,-99.99,,,0.02,Acu-Link.com,2013-09-13 06:33:00,
2013-09-13 02:48:00,59.0,58.7,29.89,West,270,0.0,-999.0,99,-99.99,,,0.02,Acu-Link.com,2013-09-13 06:48:00,
2013-09-13 03:03:00,57.2,56.6,29.89,NNW,337,0.0,-999.0,98,-99.99,,,0.02,Acu-Link.com,2013-09-13 07:03:00,
2013-09-13 03:18:00,57.2,56.4,29.89,West,270,0.0,-999.0,97,-99.99,,,0.02,Acu-Link.com,2013-09-13 07:18:00,
2013-09-13 03:33:00,57.2,56.4,29.89,North,0,0.0,-999.0,97,-99.99,,,0.02,Acu-Link.com,2013-09-13 07:33:00,
2013-09-13 03:49:00,57.2,56.6,29.89,West,270,0.0,-999.0,98,-99.99,,,0.02,Acu-Link.com,2013-09-13 07:49:00,
2013-09-13 04:04:00,57.2,56.6,29.89,WSW,247,0.0,-999.0,98,-99.99,,,0.02,Acu-Link.com,2013-09-13 08:04:00,
2013-09-13 04:19:00,57.2,56.6,29.89,South,180,0.0,-999.0,98,-99.99,,,0.02,Acu-Link.com,2013-09-13 08:19:00,
2013-09-13 04:34:00,57.2,56.6,29.89,East,90,0.0,-999.0,98,-99.99,,,0.02,Acu-Link.com,2013-09-13 08:34:00,
2013-09-13 04:49:00,57.2,56.9,29.90,West,270,0.0,-999.0,99,-99.99,,,0.02,Acu-Link.com,2013-09-13 08:49:00,
2013-09-13 05:05:00,55.4,54.8,29.90,West,270,1.1,-999.0,98,-99.99,,,0.02,Acu-Link.com,2013-09-13 09:05:00,
2013-09-13 05:20:00,55.4,54.6,29.90,WNW,292,2.7,-999.0,97,-99.99,,,0.04,Acu-Link.com,2013-09-13 09:20:00,
2013-09-13 05:35:00,55.4,54.6,29.90,NNW,337,2.0,-999.0,97,-99.99,,,0.04,Acu-Link.com,2013-09-13 09:35:00,
2013-09-13 05:50:00,55.4,54.3,29.90,West,270,3.6,-999.0,96,-99.99,,,0.04,Acu-Link.com,2013-09-13 09:50:00,
2013-09-13 06:06:00,55.4,54.0,29.90,WNW,292,1.6,-999.0,95,-99.99,,,0.04,Acu-Link.com,2013-09-13 10:06:00,
2013-09-13 06:21:00,14.0,-69.4,29.90,WNW,292,1.6,-999.0,0,-99.99,,,0.04,Acu-Link.com,2013-09-13 10:21:00,
2013-09-13 06:36:00,55.4,54.8,29.90,NNE,22,2.0,-999.0,98,-99.99,,,0.05,Acu-Link.com,2013-09-13 10:36:00,
2013-09-13 06:51:00,55.4,54.6,29.91,WNW,292,0.0,-999.0,97,-99.99,,,0.06,Acu-Link.com,2013-09-13 10:51:00,
2013-09-13 07:06:00,55.4,55.1,29.91,WNW,292,2.7,-999.0,99,-99.99,,,0.07,Acu-Link.com,2013-09-13 11:06:00,
2013-09-13 07:22:00,55.4,55.1,29.92,North,0,2.7,-999.0,99,-99.99,,,0.08,Acu-Link.com,2013-09-13 11:22:00,
2013-09-13 07:37:00,55.4,55.1,29.92,ESE,112,1.6,-999.0,99,-99.99,,,0.08,Acu-Link.com,2013-09-13 11:37:00,
2013-09-13 07:52:00,55.4,54.8,29.93,West,270,1.6,-999.0,98,-99.99,,,0.08,Acu-Link.com,2013-09-13 11:52:00,
2013-09-13 08:07:00,55.4,54.6,29.93,NNE,22,1.6,-999.0,97,-99.99,,,0.08,Acu-Link.com,2013-09-13 12:07:00,
2013-09-13 08:23:00,55.4,54.3,29.93,North,0,2.0,-999.0,96,-99.99,,,0.08,Acu-Link.com,2013-09-13 12:23:00,
2013-09-13 08:38:00,57.2,54.9,29.93,West,270,2.7,-999.0,92,-99.99,,,0.08,Acu-Link.com,2013-09-13 12:38:00,
2013-09-13 08:53:00,59.0,56.1,29.93,WNW,292,2.0,-999.0,90,-99.99,,,0.08,Acu-Link.com,2013-09-13 12:53:00,
2013-09-13 09:08:00,59.0,55.8,29.93,NNW,337,5.1,-999.0,89,-99.99,,,0.08,Acu-Link.com,2013-09-13 13:08:00,
2013-09-13 09:23:00,59.0,55.4,29.93,South,180,2.0,-999.0,88,-99.99,,,0.08,Acu-Link.com,2013-09-13 13:23:00,
2013-09-13 09:38:00,60.8,56.6,29.93,NW,315,2.0,-999.0,86,-99.99,,,0.08,Acu-Link.com,2013-09-13 13:38:00,
2013-09-13 09:53:00,59.0,56.4,29.94,South,180,1.1,-999.0,91,-99.99,,,0.09,Acu-Link.com,2013-09-13 13:53:00,
2013-09-13 10:08:00,59.0,55.1,29.95,East,90,3.1,-999.0,87,-99.99,,,0.09,Acu-Link.com,2013-09-13 14:08:00,
2013-09-13 10:23:00,60.8,54.9,29.95,NE,45,2.7,-999.0,81,-99.99,,,0.09,Acu-Link.com,2013-09-13 14:23:00,
2013-09-13 10:38:00,60.8,55.3,29.96,WNW,292,3.1,-999.0,82,-99.99,,,0.09,Acu-Link.com,2013-09-13 14:38:00,
2013-09-13 10:53:00,60.8,54.6,29.96,NW,315,3.6,-999.0,80,-99.99,,,0.09,Acu-Link.com,2013-09-13 14:53:00,
2013-09-13 11:08:00,60.8,54.6,29.97,ESE,112,2.0,-999.0,80,-99.99,,,0.09,Acu-Link.com,2013-09-13 15:08:00,
2013-09-13 11:23:00,60.8,54.2,29.97,West,270,2.0,-999.0,79,-99.99,,,0.09,Acu-Link.com,2013-09-13 15:23:00,
2013-09-13 11:38:00,60.8,55.9,29.98,NW,315,2.0,-999.0,84,-99.99,,,0.09,Acu-Link.com,2013-09-13 15:38:00,
2013-09-13 11:53:00,59.0,54.8,30.00,ESE,112,1.6,-999.0,86,-99.99,,,0.09,Acu-Link.com,2013-09-13 15:53:00,
2013-09-13 12:08:00,59.0,55.4,30.00,SW,225,1.6,-999.0,88,-99.99,,,0.09,Acu-Link.com,2013-09-13 16:08:00,
2013-09-13 12:23:00,55.4,52.5,30.00,North,0,3.1,-999.0,90,-99.99,,,0.13,Acu-Link.com,2013-09-13 16:23:00,
2013-09-13 12:39:00,55.4,53.1,30.01,West,270,0.0,-999.0,92,-99.99,,,0.13,Acu-Link.com,2013-09-13 16:39:00,
2013-09-13 12:54:00,57.2,54.3,30.00,WNW,292,1.1,-999.0,90,-99.99,,,0.14,Acu-Link.com,2013-09-13 16:54:00,
2013-09-13 13:09:00,57.2,54.6,30.00,NNE,22,0.0,-999.0,91,-99.99,,,0.14,Acu-Link.com,2013-09-13 17:09:00,
2013-09-13 13:24:00,55.4,51.9,30.00,NNE,22,1.6,-999.0,88,-99.99,,,0.14,Acu-Link.com,2013-09-13 17:24:00,
2013-09-13 13:39:00,57.2,53.4,30.00,NNE,22,1.6,-999.0,87,-99.99,,,0.14,Acu-Link.com,2013-09-13 17:39:00,
2013-09-13 13:54:00,57.2,53.4,30.00,East,90,0.0,-999.0,87,-99.99,,,0.14,Acu-Link.com,2013-09-13 17:54:00,
2013-09-13 14:09:00,59.0,55.1,30.00,ENE,67,0.0,-999.0,87,-99.99,,,0.14,Acu-Link.com,2013-09-13 18:09:00,
2013-09-13 14:24:00,60.8,55.6,29.99,WNW,292,2.0,-999.0,83,-99.99,,,0.14,Acu-Link.com,2013-09-13 18:24:00,
2013-09-13 14:39:00,57.2,54.0,30.00,WNW,292,0.0,-999.0,89,-99.99,,,0.19,Acu-Link.com,2013-09-13 18:39:00,
2013-09-13 14:54:00,59.0,55.8,29.99,West,270,1.6,-999.0,89,-99.99,,,0.19,Acu-Link.com,2013-09-13 18:54:00,
2013-09-13 15:09:00,59.0,53.2,29.99,NNE,22,4.7,-999.0,81,-99.99,,,0.19,Acu-Link.com,2013-09-13 19:09:00,
2013-09-13 15:24:00,60.8,54.9,29.99,SSW,202,3.6,-999.0,81,-99.99,,,0.19,Acu-Link.com,2013-09-13 19:24:00,
2013-09-13 15:39:00,60.8,52.8,29.99,ESE,112,3.1,-999.0,75,-99.99,,,0.19,Acu-Link.com,2013-09-13 19:39:00,
2013-09-13 15:54:00,59.0,50.4,30.00,WNW,292,2.0,-999.0,73,-99.99,,,0.19,Acu-Link.com,2013-09-13 19:54:00,
2013-09-13 16:09:00,59.0,50.0,30.00,NNW,337,4.0,-999.0,72,-99.99,,,0.19,Acu-Link.com,2013-09-13 20:09:00,
2013-09-13 16:24:00,59.0,48.8,30.00,SSW,202,5.1,-999.0,69,-99.99,,,0.19,Acu-Link.com,2013-09-13 20:24:00,
2013-09-13 16:39:00,59.0,51.1,30.00,West,270,2.7,-999.0,75,-99.99,,,0.19,Acu-Link.com,2013-09-13 20:39:00,
2013-09-13 16:54:00,59.0,51.1,30.01,SE,135,0.0,-999.0,75,-99.99,,,0.19,Acu-Link.com,2013-09-13 20:54:00,
2013-09-13 17:09:00,57.2,49.7,30.01,NW,315,5.6,-999.0,76,-99.99,,,0.19,Acu-Link.com,2013-09-13 21:09:00,
2013-09-13 17:24:00,55.4,49.0,30.01,WNW,292,2.7,-999.0,79,-99.99,,,0.19,Acu-Link.com,2013-09-13 21:24:00,
2013-09-13 17:39:00,55.4,48.7,30.02,ENE,67,2.0,-999.0,78,-99.99,,,0.19,Acu-Link.com,2013-09-13 21:39:00,
2013-09-13 17:54:00,55.4,48.0,30.02,North,0,0.0,-999.0,76,-99.99,,,0.19,Acu-Link.com,2013-09-13 21:54:00,
2013-09-13 18:09:00,55.4,47.6,30.02,East,90,2.0,-999.0,75,-99.99,,,0.19,Acu-Link.com,2013-09-13 22:09:00,
2013-09-13 18:24:00,55.4,48.0,30.02,WNW,292,2.0,-999.0,76,-99.99,,,0.19,Acu-Link.com,2013-09-13 22:24:00,
2013-09-13 18:39:00,55.4,47.6,30.02,East,90,2.0,-999.0,75,-99.99,,,0.19,Acu-Link.com,2013-09-13 22:39:00,
2013-09-13 18:54:00,55.4,48.7,30.03,NNE,22,2.7,-999.0,78,-99.99,,,0.19,Acu-Link.com,2013-09-13 22:54:00,
2013-09-13 19:10:00,55.4,49.3,30.03,WNW,292,1.6,-999.0,80,-99.99,,,0.19,Acu-Link.com,2013-09-13 23:10:00,
2013-09-13 19:25:00,55.4,49.3,30.04,NNW,337,2.0,-999.0,80,-99.99,,,0.19,Acu-Link.com,2013-09-13 23:25:00,
2013-09-13 19:40:00,55.4,49.0,30.04,West,270,5.6,-999.0,79,-99.99,,,0.19,Acu-Link.com,2013-09-13 23:40:00,
2013-09-13 19:55:00,53.6,47.6,30.04,South,180,1.6,-999.0,80,-99.99,,,0.19,Acu-Link.com,2013-09-13 23:55:00,
2013-09-13 20:10:00,53.6,47.2,30.04,SSW,202,2.7,-999.0,79,-99.99,,,0.19,Acu-Link.com,2013-09-14 00:10:00,
2013-09-13 20:25:00,53.6,46.6,30.05,NNE,22,3.1,-999.0,77,-99.99,,,0.19,Acu-Link.com,2013-09-14 00:25:00,
2013-09-13 20:40:00,53.6,47.2,30.06,WNW,292,1.6,-999.0,79,-99.99,,,0.19,Acu-Link.com,2013-09-14 00:40:00,
2013-09-13 20:55:00,53.6,46.9,30.07,SSE,157,1.1,-999.0,78,-99.99,,,0.19,Acu-Link.com,2013-09-14 00:55:00,
2013-09-13 21:10:00,53.6,47.6,30.07,West,270,0.0,-999.0,80,-99.99,,,0.19,Acu-Link.com,2013-09-14 01:10:00,
2013-09-13 21:25:00,51.8,45.5,30.07,WNW,292,1.1,-999.0,79,-99.99,,,0.19,Acu-Link.com,2013-09-14 01:25:00,
2013-09-13 21:40:00,53.6,46.9,30.07,SSE,157,2.7,-999.0,78,-99.99,,,0.19,Acu-Link.com,2013-09-14 01:40:00,
2013-09-13 21:56:00,53.6,46.9,30.08,ENE,67,0.0,-999.0,78,-99.99,,,0.19,Acu-Link.com,2013-09-14 01:56:00,
2013-09-13 22:11:00,53.6,46.9,30.07,West,270,3.1,-999.0,78,-99.99,,,0.19,Acu-Link.com,2013-09-14 02:11:00,
2013-09-13 22:26:00,53.6,46.9,30.07,NE,45,1.1,-999.0,78,-99.99,,,0.19,Acu-Link.com,2013-09-14 02:26:00,
2013-09-13 22:41:00,53.6,46.9,30.08,NE,45,1.6,-999.0,78,-99.99,,,0.19,Acu-Link.com,2013-09-14 02:41:00,
2013-09-13 22:57:00,53.6,46.6,30.07,South,180,1.6,-999.0,77,-99.99,,,0.19,Acu-Link.com,2013-09-14 02:57:00,
2013-09-13 23:12:00,53.6,46.2,30.07,West,270,2.7,-999.0,76,-99.99,,,0.19,Acu-Link.com,2013-09-14 03:12:00,
2013-09-13 23:27:00,51.8,44.1,30.08,WSW,247,1.1,-999.0,75,-99.99,,,0.19,Acu-Link.com,2013-09-14 03:27:00,
2013-09-13 23:42:00,51.8,44.8,30.07,NNE,22,1.6,-999.0,77,-99.99,,,0.19,Acu-Link.com,2013-09-14 03:42:00,
2013-09-13 23:57:00,51.8,46.2,30.07,WSW,247,0.0,-999.0,81,-99.99,,,0.19,Acu-Link.com,2013-09-14 03:57:00,